[[{"header":{"parameterUnit":"m.s-1","parameterCategory":2,"la1":30.2991,"la2":30.254,"lo1":-89.0895,"lo2":-89.0444,"dy":0.0017,"dx":0.0017,"nx":28,"ny":28,"refTime":"2024-07-02T09:00:00:Z","depth":"0","parameterNumber":2,"parameterNumberName":"U-component_of_CURRENTS"},"data":[0,0,0,0,0,0,0,0,0,0,0,0,0,0,0,0,0,0,0,0,0,0,0,0,0,0,0,0,0,0,0,0,0,0,0,0,0,0,0,0,0,0,0,0,0,0,0,0,0,0,0,0,0,0,0,0,0,0,-0.0575,-0.0575,0,-0.0602,-0.0603,-0.0603,-0.0739,-0.0743,-0.0746,-0.0749,-0.0821,-0.082,-0.0819,0,0,0,0,0,0,0,0,0,0,0,0,0,-0.0498,-0.0499,-0.0575,-0.0575,-0.0575,-0.0602,-0.0603,-0.0603,-0.0739,-0.0743,-0.0747,-0.075,-0.0821,-0.082,-0.0819,0,0,0,0,0,0,0,0,0,0,0,0,0,-0.053,-0.05,-0.0575,-0.0646,-0.0653,-0.0602,-0.0603,-0.0603,-0.0738,-0.0743,-0.0748,-0.0752,-0.0821,-0.082,-0.0818,-0.0714,0,0,-0.0814,-0.0813,0,0,0,0,0,0,0,0,-0.0528,-0.0533,-0.0635,-0.0641,-0.0648,-0.0672,-0.0602,-0.0642,-0.0737,-0.0706,-0.0749,-0.0754,-0.0771,-0.0774,-0.0769,-0.0717,-0.072,-0.0814,-0.0813,-0.0812,-0.0811,0,0,0,0,0,0,0,-0.0526,-0.0531,-0.0587,-0.0635,-0.0643,-0.0627,-0.0639,-0.0609,-0.0713,-0.0709,-0.0719,-0.0719,-0.0776,-0.077,-0.0772,-0.0721,-0.0814,-0.0812,-0.0811,-0.0811,-0.0237,-0.0223,0,0,0,0,0,0,-0.0523,-0.053,-0.0586,-0.0587,-0.0597,-0.0625,-0.0638,-0.066,-0.0713,-0.0725,-0.0715,-0.0726,-0.077,-0.0773,-0.0775,-0.0328,-0.0812,-0.081,-0.081,-0.0251,-0.0234,-0.0218,0,0,0,0,0,0,-0.0521,-0.0528,-0.0585,-0.0557,-0.0563,-0.0623,-0.0645,-0.0658,-0.0648,-0.0717,-0.0731,-0.0693,-0.0774,-0.0777,-0.0631,-0.0345,-0.081,-0.0808,-0.0268,-0.0246,-0.0226,0.0357,0,0,0,0,0,0,-0.0519,-0.0528,-0.0514,-0.0558,-0.0565,-0.0453,-0.0641,-0.0655,-0.0641,-0.0655,-0.07,-0.0714,-0.0778,-0.0632,-0.063,-0.0351,-0.0807,-0.0286,-0.0258,-0.0233,0.032,0.0395,0.0461,0,0,0,0,0,-0.0517,-0.0432,-0.0514,-0.0519,-0.0555,-0.0444,-0.044,-0.0502,-0.0635,-0.0533,-0.0559,-0.0712,-0.0459,-0.062,-0.0621,-0.0335,-0.0299,-0.0266,-0.0235,0.0288,0.0381,0.0459,0,0,0,0,0,0,-0.0355,-0.044,-0.053,-0.0474,-0.0434,-0.0465,-0.0374,-0.047,-0.0421,-0.043,-0.0569,-0.057,-0.0283,-0.0404,-0.058,-0.0078,-0.0386,-0.0353,0.0012,0.0098,0.0167,0.023,-0.0806,0,0,0,0,0,-0.0327,-0.0299,-0.0357,-0.0286,-0.0265,-0.0334,-0.0305,-0.0336,-0.0319,-0.031,-0.033,-0.0301,-0.0143,-0.0117,0.0001,0.0197,0.0142,0.0399,0.047,0.053,0.0592,0.0772,0.0863,-0.0112,-0.0113,-0.0113,0,0,-0.0237,-0.0278,-0.0261,-0.0249,-0.0238,-0.0078,-0.0322,-0.0203,-0.0037,-0.0314,-0.0061,-0.0031,-0.0018,0.0295,0.0404,0.0205,0.0794,0.0571,0.0621,0.0651,0.0815,0.0909,0.0992,-0.0091,-0.0095,-0.0098,0,0,0.0027,-0.0077,0.0053,0.0111,0.0159,0.0151,0.0191,0.0212,0.0256,0.0476,0.0401,0.0607,0.0713,0.0862,0.0921,0.1439,0.1209,0.1445,0.1793,0.1971,0.2051,0.212,0.221,0.2283,0.1421,0.1422,0.1423,0,0.0148,0.0243,0.0139,0.0315,0.0388,0.0272,0.0479,0.0576,0.0663,0.074,0.0655,0.0997,0.1044,0.142,0.1655,0.1615,0.1584,0.1455,0.2059,0.2126,0.2187,0.2262,0.2334,0.1454,0.145,0.1447,0.1444,0,0.0509,0.0597,0.0717,0.0857,0.096,0.1133,0.1203,0.1339,0.1337,0.1395,0.1747,0.1842,0.198,0.2123,0.2061,0.2543,0.2345,0.2168,0.1825,0.232,0.2368,0.2433,0.15,0.1488,0.1479,0.1471,0,0,0.0763,0.0916,0.0967,0.1048,0.1226,0.1332,0.1663,0.1871,0.1989,0.2222,0.2412,0.2876,0.2789,0.2863,0.2826,0.3042,0.3534,0.28,0.2794,0.2859,0.3849,0.3715,0.3767,0.3398,0.3412,0.3424,0.3718,0,0.1073,0.141,0.1428,0.1782,0.1943,0.1942,0.2208,0.2397,0.2494,0.2675,0.2874,0.3069,0.3097,0.3113,0.3404,0.3435,0.3723,0.3466,0.3386,0.3385,0.3181,0.3849,0.3733,0.3986,0.3779,0.3789,0.3797,0,0.1434,0.1576,0.1926,0.2091,0.2157,0.2355,0.2576,0.2792,0.304,0.3089,0.3329,0.3343,0.3756,0.3628,0.4114,0.3896,0.4008,0.4066,0.4071,0.3785,0.3378,0.3458,0.4107,0.4035,0.3893,0.3885,0.3878,0,0.1621,0.1919,0.2152,0.2243,0.2462,0.2587,0.2698,0.2931,0.3034,0.3283,0.3316,0.3723,0.3813,0.4125,0.4286,0.4189,0.4701,0.452,0.4562,0.4541,0.4361,0.4304,0.4909,0.5003,0.5002,0.5001,0.5,0,0.193,0.2127,0.2218,0.2363,0.2564,0.2686,0.2882,0.3014,0.3168,0.3296,0.3479,0.3613,0.3941,0.4189,0.4394,0.4686,0.4799,0.4816,0.4709,0.4563,0.4524,0.4359,0.4284,0.5012,0.501,0.5008,0.5006,0,0.2158,0.224,0.2461,0.2628,0.2656,0.2797,0.2879,0.2987,0.3118,0.3262,0.3321,0.3582,0.3907,0.4198,0.462,0.475,0.4955,0.5108,0.4879,0.475,0.4704,0.4661,0.4833,0.4765,0.528,0.528,0.528,0,0.2335,0.2463,0.2577,0.2607,0.267,0.2801,0.2854,0.2967,0.3027,0.3242,0.3304,0.3611,0.3825,0.4361,0.4689,0.5074,0.4963,0.513,0.5055,0.4894,0.4767,0.4456,0.4364,0.5047,0.5045,0.5044,0.5043,0,0.2592,0.2574,0.2677,0.2704,0.2741,0.2777,0.2843,0.2864,0.2989,0.3105,0.3278,0.3457,0.3934,0.4281,0.4709,0.4935,0.4914,0.5106,0.5071,0.4859,0.4438,0.4243,0.4564,0.5029,0.503,0.5031,0.5032,0.5032,0.2691,0.2732,0.2739,0.2765,0.277,0.2727,0.2733,0.2776,0.2852,0.2982,0.3189,0.3416,0.3911,0.4521,0.4671,0.4912,0.486,0.4937,0.4962,0.4706,0.4521,0.4796,0.5018,0.5019,0.502,0.5021,0.5022,0,0.2749,0.2732,0.2772,0.2741,0.2691,0.2698,0.2687,0.2665,0.2711,0.2899,0.3053,0.3502,0.3913,0.4301,0.4775,0.4791,0.4593,0.4763,0.4403,0.4377,0.4797,0.4666,0.4661,0.4661,0.4662,0.4662,0.4662,0.4662,0.2764,0.2753,0.2735,0.2638,0.2594,0.2498,0.2465,0.2472,0.2564,0.2746,0.2949,0.315,0.3697,0.4389,0.4653,0.4634,0.4427,0.4259,0.4277,0.4657,0.4674,0.469,0.4561,0.4534,0.4534,0.3662,0.3657,0.3653]},{"header":{"parameterUnit":"m.s-1","parameterCategory":2,"la1":30.2991,"la2":30.254,"lo1":-89.0895,"lo2":-89.0444,"dy":0.0017,"dx":0.0017,"nx":28,"ny":28,"refTime":"2024-07-02T09:00:00:Z","depth":"0","parameterNumber":3,"parameterNumberName":"V-component_of_CURRENTS"},"data":[0,0,0,0,0,0,0,0,0,0,0,0,0,0,0,0,0,0,0,0,0,0,0,0,0,0,0,0,0,0,0,0,0,0,0,0,0,0,0,0,0,0,0,0,0,0,0,0,0,0,0,0,0,0,0,0,0,0,0.0285,0.0286,0,0.0357,0.0358,0.0359,0.0336,0.0334,0.0333,0.0331,0.0326,0.0327,0.0328,0,0,0,0,0,0,0,0,0,0,0,0,0,0.0207,0.0208,0.0285,0.0286,0.0287,0.0357,0.0358,0.0359,0.0336,0.0334,0.0332,0.0331,0.0326,0.0327,0.0329,0,0,0,0,0,0,0,0,0,0,0,0,0,0.0256,0.0208,0.0285,0.0284,0.0285,0.0357,0.0358,0.0359,0.0337,0.0334,0.0332,0.033,0.0325,0.0327,0.0329,0.0386,0,0,0.0335,0.0335,0,0,0,0,0,0,0,0,0.0253,0.0259,0.0284,0.0285,0.0285,0.0335,0.0328,0.0364,0.0337,0.0317,0.0331,0.0329,0.0324,0.0326,0.0345,0.0385,0.0385,0.0335,0.0336,0.0337,0.0337,0,0,0,0,0,0,0,0.0249,0.0256,0.0313,0.0285,0.0286,0.0307,0.0311,0.0336,0.0331,0.0318,0.0317,0.0326,0.0323,0.0343,0.0344,0.0385,0.0335,0.0336,0.0338,0.0338,0.0564,0.0569,0,0,0,0,0,0,0.024,0.0253,0.0311,0.0316,0.0264,0.031,0.0314,0.0321,0.0332,0.0332,0.0328,0.0325,0.0341,0.0342,0.0344,0.0503,0.0337,0.0338,0.034,0.056,0.0565,0.0571,0,0,0,0,0,0,0.0238,0.0244,0.0308,0.0286,0.0295,0.0313,0.0322,0.0324,0.0354,0.034,0.0338,0.0356,0.0339,0.0341,0.0417,0.0498,0.0339,0.0341,0.0554,0.0561,0.0568,0.0761,0,0,0,0,0,0,0.0235,0.0243,0.0243,0.0285,0.0296,0.0376,0.0324,0.0327,0.0362,0.0359,0.0364,0.036,0.0338,0.0415,0.0419,0.0498,0.0342,0.0548,0.0557,0.0566,0.0749,0.0774,0.0796,0,0,0,0,0,0.0232,0.0246,0.0243,0.025,0.0296,0.0379,0.0388,0.0392,0.0366,0.0405,0.0424,0.0361,0.0475,0.0422,0.0425,0.0506,0.0543,0.0555,0.0565,0.0738,0.0769,0.0796,0,0,0,0,0,0,0.0196,0.0246,0.0243,0.0265,0.0328,0.0375,0.0407,0.0412,0.0458,0.0458,0.0427,0.0429,0.0522,0.0498,0.0439,0.0601,0.0498,0.051,0.0628,0.0657,0.068,0.077,0.0344,0,0,0,0,0,0.0194,0.0225,0.028,0.0302,0.0339,0.0379,0.0408,0.0429,0.0474,0.049,0.0503,0.0526,0.0573,0.06,0.0628,0.0723,0.0695,0.0778,0.0802,0.0822,0.09,0.0919,0.0951,0.0607,0.0607,0.0606,0,0,0.0178,0.0216,0.0226,0.0299,0.0345,0.0461,0.0393,0.0469,0.0575,0.0485,0.0622,0.0607,0.0616,0.0725,0.0764,0.0715,0.0899,0.0836,0.0853,0.0922,0.0934,0.0967,0.0996,0.0614,0.0613,0.0612,0,0,0.0235,0.0215,0.03,0.0376,0.0472,0.051,0.0542,0.0624,0.0665,0.0791,0.0756,0.0819,0.0876,0.0924,0.0947,0.1128,0.1018,0.1104,0.1306,0.1321,0.135,0.1374,0.1346,0.1367,0.1122,0.1122,0.1122,0,0.0217,0.0343,0.0336,0.0474,0.0564,0.0549,0.0707,0.0757,0.0855,0.0939,0.0863,0.1026,0.0997,0.1175,0.1227,0.1188,0.1148,0.1186,0.1351,0.1375,0.1397,0.1363,0.1383,0.1133,0.1131,0.113,0.1129,0,0.0401,0.0492,0.0555,0.0727,0.0813,0.0935,0.1022,0.1107,0.1135,0.1206,0.1369,0.1349,0.1452,0.1434,0.1386,0.155,0.1452,0.1365,0.1273,0.1444,0.1395,0.1413,0.1148,0.1144,0.1141,0.1138,0,0,0.042,0.0637,0.067,0.0809,0.0969,0.1076,0.1245,0.1432,0.1571,0.1632,0.1823,0.1891,0.1859,0.1888,0.1817,0.1835,0.1909,0.1678,0.1673,0.1642,0.1909,0.1787,0.1791,0.1822,0.1827,0.1832,0.1798,0,0.0591,0.0869,0.0943,0.1225,0.1393,0.1451,0.1622,0.1775,0.1852,0.2011,0.2033,0.2146,0.2034,0.2048,0.2078,0.1949,0.1972,0.1926,0.176,0.1757,0.162,0.1816,0.1768,0.1731,0.1814,0.1817,0.1819,0,0.0816,0.0972,0.1258,0.1527,0.1607,0.1756,0.2027,0.217,0.2353,0.2408,0.2529,0.2499,0.259,0.2405,0.238,0.234,0.2183,0.2061,0.2054,0.1907,0.1672,0.1584,0.1759,0.1439,0.1845,0.1843,0.1841,0,0.0932,0.1222,0.145,0.1549,0.182,0.1967,0.2104,0.2313,0.2442,0.2631,0.27,0.282,0.2807,0.2722,0.2487,0.2426,0.2388,0.2252,0.2019,0.2003,0.1926,0.1897,0.1782,0.2258,0.2258,0.2258,0.2258,0,0.1146,0.1345,0.1516,0.1663,0.1937,0.2092,0.2362,0.2503,0.2685,0.2845,0.2886,0.2976,0.287,0.2811,0.2615,0.2396,0.2493,0.2134,0.203,0.1985,0.1963,0.1647,0.1548,0.2257,0.2257,0.2258,0.2258,0,0.1297,0.1404,0.1669,0.1925,0.2005,0.2204,0.2453,0.2625,0.2772,0.2956,0.3,0.3091,0.3029,0.2895,0.2716,0.251,0.2158,0.2202,0.2141,0.2034,0.1511,0.1428,0.1326,0.1167,0.1984,0.1982,0.1979,0,0.1431,0.1562,0.1798,0.191,0.2033,0.2284,0.2439,0.2647,0.2788,0.3004,0.3084,0.3106,0.3136,0.2888,0.2583,0.2307,0.2055,0.2001,0.1906,0.1555,0.1386,0.1308,0.1176,0.1855,0.1852,0.1849,0.1847,0,0.1637,0.1663,0.1828,0.2013,0.2185,0.2387,0.2607,0.2716,0.2929,0.3063,0.3205,0.3251,0.3067,0.2818,0.2446,0.2212,0.1799,0.1934,0.162,0.137,0.1242,0.101,0.1754,0.1826,0.1828,0.1829,0.1831,0.1831,0.1724,0.1822,0.1937,0.2128,0.2293,0.2458,0.2603,0.278,0.2969,0.3167,0.3243,0.334,0.3036,0.2563,0.2161,0.1465,0.1579,0.1243,0.1196,0.1163,0.0972,0.1654,0.1564,0.1565,0.1565,0.1566,0.1566,0,0.1808,0.1875,0.2043,0.2231,0.2374,0.2463,0.2686,0.28,0.2965,0.318,0.3312,0.3309,0.2733,0.2202,0.1357,0.0824,0.0631,0.057,0.0457,0.0372,0.1009,0.0954,0.0669,0.067,0.067,0.067,0.0671,0.0671,0.1841,0.1959,0.2023,0.2238,0.2361,0.2537,0.2642,0.2803,0.2987,0.3236,0.3406,0.358,0.3312,0.1685,0.0491,0.0191,-0.0206,-0.0199,-0.0392,0.0017,0.0075,0.0129,0.0047,-0.0422,-0.0423,-0.1052,-0.1057,-0.1062]}],[{"header":{"parameterUnit":"m.s-1","parameterCategory":2,"la1":30.2991,"la2":30.254,"lo1":-89.0895,"lo2":-89.0444,"dy":0.0017,"dx":0.0017,"nx":28,"ny":28,"refTime":"2024-07-02T09:00:00:Z","depth":"2","parameterNumber":2,"parameterNumberName":"U-component_of_CURRENTS"},"data":[0,0,0,0,0,0,0,0,0,0,0,0,0,0,0,0,0,0,0,0,0,0,0,0,0,0,0,0,0,0,0,0,0,0,0,0,0,0,0,0,0,0,0,0,0,0,0,0,0,0,0,0,0,0,0,0,0,0,0.1293,0.1294,0,0.1346,0.1346,0.1347,0.1358,0.1357,0.1357,0.1356,0.1475,0.1478,0.1482,0,0,0,0,0,0,0,0,0,0,0,0,0,0.1243,0.1243,0.1293,0.1294,0.1294,0.1345,0.1346,0.1347,0.1358,0.1357,0.1356,0.1356,0.1474,0.1478,0.1482,0,0,0,0,0,0,0,0,0,0,0,0,0,0.1278,0.1244,0.1293,0.1305,0.1307,0.1345,0.1346,0.1347,0.1358,0.1357,0.1356,0.1356,0.1472,0.1478,0.1483,0.1531,0,0,0.1499,0.1502,0,0,0,0,0,0,0,0,0.1275,0.1279,0.1303,0.1304,0.1306,0.1344,0.1372,0.1412,0.1358,0.1339,0.1356,0.1355,0.1437,0.1445,0.1457,0.1536,0.1541,0.15,0.1503,0.1505,0.1507,0,0,0,0,0,0,0,0.1273,0.1278,0.1315,0.1304,0.1306,0.1322,0.1326,0.1379,0.1394,0.1341,0.1342,0.1346,0.1439,0.1452,0.146,0.1543,0.15,0.1505,0.1508,0.151,0.171,0.1712,0,0,0,0,0,0,0.1264,0.1275,0.1313,0.1316,0.1288,0.1323,0.1327,0.1333,0.1392,0.1399,0.1347,0.1347,0.1443,0.1454,0.1464,0.1575,0.1505,0.151,0.1514,0.1708,0.1711,0.1713,0,0,0,0,0,0,0.1262,0.1267,0.1311,0.1296,0.1303,0.1324,0.1331,0.1334,0.1358,0.1395,0.1404,0.1368,0.1443,0.1457,0.1531,0.1578,0.1513,0.1518,0.1706,0.1709,0.1712,0.1764,0,0,0,0,0,0,0.1261,0.1266,0.1283,0.1296,0.1303,0.1346,0.1331,0.1336,0.1361,0.1362,0.1416,0.1425,0.1443,0.1523,0.1536,0.1584,0.1522,0.1703,0.1707,0.1711,0.176,0.1769,0.1776,0,0,0,0,0,0.1259,0.1279,0.1283,0.1289,0.132,0.1347,0.1354,0.1366,0.1363,0.1384,0.1422,0.1424,0.1557,0.1529,0.1545,0.1595,0.1701,0.1706,0.1711,0.1756,0.1767,0.1776,0,0,0,0,0,0,0.1269,0.1282,0.1287,0.1312,0.1334,0.1349,0.137,0.1377,0.1423,0.1427,0.1457,0.147,0.1551,0.1568,0.1537,0.1663,0.1628,0.1636,0.1658,0.1668,0.1676,0.1686,0.1527,0,0,0,0,0,0.1279,0.1294,0.1311,0.1333,0.1343,0.136,0.1378,0.1385,0.1417,0.1435,0.1475,0.1523,0.1582,0.1619,0.1665,0.1743,0.1751,0.1783,0.1791,0.1798,0.1817,0.1869,0.1883,0.1728,0.1728,0.1728,0,0,0.1289,0.1298,0.1309,0.1337,0.1352,0.1385,0.137,0.1396,0.1437,0.1445,0.1522,0.1555,0.1607,0.1688,0.1726,0.171,0.1844,0.1804,0.1809,0.1825,0.1875,0.189,0.1903,0.1731,0.1731,0.173,0,0,0.131,0.1324,0.1345,0.1366,0.1392,0.141,0.142,0.1449,0.1477,0.1547,0.1566,0.1631,0.1714,0.1764,0.1799,0.1886,0.1882,0.1897,0.1957,0.2007,0.202,0.2032,0.2045,0.2057,0.1906,0.1906,0.1906,0,0.1323,0.1351,0.1358,0.1385,0.1411,0.1423,0.1459,0.1497,0.1551,0.1591,0.1579,0.1719,0.1755,0.1869,0.1896,0.1907,0.1918,0.1913,0.2018,0.2029,0.204,0.2051,0.2064,0.1909,0.1909,0.1909,0.1908,0,0.1359,0.1388,0.1402,0.1443,0.1476,0.1506,0.1549,0.1597,0.1628,0.1667,0.1774,0.1825,0.1911,0.1931,0.1945,0.2053,0.2028,0.2015,0.1988,0.2059,0.2065,0.2078,0.1914,0.1913,0.1912,0.1911,0,0,0.1367,0.1418,0.1425,0.1452,0.1508,0.1534,0.1614,0.1691,0.1751,0.1813,0.1897,0.2001,0.2024,0.2067,0.2094,0.2139,0.2216,0.2116,0.2118,0.2122,0.2306,0.2204,0.2207,0.222,0.2223,0.2226,0.2271,0,0.1395,0.1446,0.1476,0.1543,0.1574,0.1621,0.1694,0.1766,0.1832,0.1917,0.1986,0.2075,0.208,0.2124,0.2179,0.2217,0.2256,0.2204,0.2244,0.2245,0.214,0.2221,0.2099,0.2124,0.2283,0.2286,0.2287,0,0.1425,0.1454,0.1513,0.1588,0.1608,0.166,0.1772,0.1842,0.1962,0.2018,0.212,0.2161,0.2278,0.224,0.2361,0.2328,0.233,0.2335,0.2337,0.2237,0.2168,0.2084,0.214,0.2308,0.2306,0.2304,0.2303,0,0.1415,0.1487,0.1532,0.1556,0.1642,0.1693,0.1758,0.1874,0.1942,0.2088,0.2141,0.2275,0.2346,0.2393,0.2416,0.2402,0.2494,0.2474,0.238,0.2371,0.2274,0.2252,0.2538,0.2538,0.2538,0.2538,0.2538,0,0.143,0.1465,0.153,0.1552,0.1619,0.1693,0.1788,0.1876,0.1999,0.2078,0.2195,0.2271,0.2388,0.2442,0.2448,0.2455,0.253,0.2411,0.2392,0.2285,0.2264,0.2429,0.2415,0.254,0.2539,0.2539,0.2539,0,0.14,0.1446,0.149,0.1576,0.1609,0.1656,0.178,0.1846,0.1981,0.2084,0.2131,0.23,0.2395,0.2451,0.2528,0.2492,0.2498,0.2464,0.2309,0.2271,0.2332,0.2321,0.24,0.2397,0.2395,0.2393,0.2391,0,0.1376,0.1396,0.1477,0.1501,0.1539,0.1622,0.1677,0.1822,0.1898,0.2081,0.2123,0.2261,0.2328,0.2409,0.2409,0.2406,0.2447,0.225,0.2208,0.2353,0.2327,0.2319,0.2312,0.2099,0.2095,0.2092,0.2089,0,0.1313,0.1346,0.1379,0.1437,0.149,0.1557,0.1656,0.1702,0.1865,0.195,0.2076,0.2138,0.2251,0.224,0.2235,0.2202,0.2249,0.218,0.2412,0.2135,0.2068,0.2042,0.2045,0.206,0.2063,0.2065,0.2067,0.2068,0.124,0.1254,0.1305,0.1361,0.1423,0.1485,0.1514,0.1611,0.1696,0.1796,0.1911,0.1959,0.2055,0.2004,0.1965,0.1953,0.2075,0.2002,0.2013,0.2028,0.1967,0.1898,0.1846,0.1847,0.1849,0.185,0.1851,0,0.1132,0.1183,0.1228,0.1291,0.133,0.1412,0.149,0.1496,0.1542,0.1648,0.171,0.1606,0.1636,0.1737,0.1694,0.1683,0.1676,0.1619,0.1632,0.1662,0.1689,0.1612,0.1396,0.1394,0.1392,0.1391,0,0,0.107,0.1091,0.1142,0.1183,0.1246,0.1278,0.1308,0.1315,0.1377,0.1355,0.1385,0.1505,0.1663,0.1486,0.1498,0.1458,0.1535,0.1399,0.1771,0.1817,0.184,0.1925,0.1841,0,0,0,0,0]},{"header":{"parameterUnit":"m.s-1","parameterCategory":2,"la1":30.2991,"la2":30.254,"lo1":-89.0895,"lo2":-89.0444,"dy":0.0017,"dx":0.0017,"nx":28,"ny":28,"refTime":"2024-07-02T09:00:00:Z","depth":"2","parameterNumber":3,"parameterNumberName":"V-component_of_CURRENTS"},"data":[0,0,0,0,0,0,0,0,0,0,0,0,0,0,0,0,0,0,0,0,0,0,0,0,0,0,0,0,0,0,0,0,0,0,0,0,0,0,0,0,0,0,0,0,0,0,0,0,0,0,0,0,0,0,0,0,0,0,-0.0828,-0.0828,0,-0.077,-0.0769,-0.0768,-0.0713,-0.0713,-0.0712,-0.0712,-0.0641,-0.0639,-0.0638,0,0,0,0,0,0,0,0,0,0,0,0,0,-0.0866,-0.0865,-0.0828,-0.0828,-0.0827,-0.077,-0.0769,-0.0768,-0.0713,-0.0713,-0.0712,-0.0712,-0.0641,-0.0639,-0.0638,0,0,0,0,0,0,0,0,0,0,0,0,0,-0.0831,-0.0865,-0.0828,-0.0795,-0.0791,-0.077,-0.0769,-0.0768,-0.0713,-0.0713,-0.0712,-0.0711,-0.0642,-0.064,-0.0637,-0.0639,0,0,-0.0631,-0.063,0,0,0,0,0,0,0,0,-0.0833,-0.0829,-0.08,-0.0797,-0.0793,-0.075,-0.0756,-0.0725,-0.0714,-0.0741,-0.0712,-0.0711,-0.0678,-0.0673,-0.0661,-0.0636,-0.0633,-0.0631,-0.0629,-0.0628,-0.0628,0,0,0,0,0,0,0,-0.0835,-0.0831,-0.0803,-0.08,-0.0795,-0.0773,-0.0767,-0.075,-0.0713,-0.0738,-0.0735,-0.0732,-0.0675,-0.0663,-0.0659,-0.0632,-0.0631,-0.0629,-0.0628,-0.0627,-0.0568,-0.0568,0,0,0,0,0,0,-0.0849,-0.0834,-0.0805,-0.0802,-0.0814,-0.0773,-0.0767,-0.0763,-0.0713,-0.0705,-0.0732,-0.0729,-0.0667,-0.0661,-0.0656,-0.0606,-0.0629,-0.0627,-0.0625,-0.0569,-0.0568,-0.0568,0,0,0,0,0,0,-0.085,-0.0847,-0.0807,-0.0818,-0.0812,-0.0774,-0.077,-0.0762,-0.0744,-0.0709,-0.07,-0.0722,-0.0666,-0.0659,-0.0631,-0.0605,-0.0626,-0.0624,-0.0569,-0.0568,-0.0568,-0.0539,0,0,0,0,0,0,-0.0851,-0.0848,-0.0856,-0.0819,-0.0812,-0.0786,-0.077,-0.0762,-0.0745,-0.074,-0.0698,-0.069,-0.0665,-0.0634,-0.0629,-0.0603,-0.0622,-0.0569,-0.0569,-0.0568,-0.054,-0.0537,-0.0535,0,0,0,0,0,-0.0853,-0.0854,-0.0856,-0.0853,-0.0822,-0.0785,-0.0779,-0.0748,-0.0745,-0.0731,-0.0706,-0.0691,-0.0627,-0.0633,-0.0626,-0.0598,-0.0569,-0.0569,-0.0568,-0.0541,-0.0538,-0.0535,0,0,0,0,0,0,-0.0863,-0.0848,-0.0849,-0.0844,-0.0818,-0.0777,-0.0768,-0.0752,-0.0722,-0.0718,-0.0689,-0.0679,-0.0645,-0.0635,-0.0642,-0.0583,-0.0596,-0.0594,-0.0577,-0.0574,-0.0572,-0.0576,-0.062,0,0,0,0,0,-0.0876,-0.0879,-0.0852,-0.0849,-0.0839,-0.0809,-0.0795,-0.077,-0.0739,-0.0725,-0.0693,-0.0665,-0.064,-0.0618,-0.0596,-0.0565,-0.0595,-0.0545,-0.0543,-0.054,-0.0541,-0.0581,-0.0583,-0.0566,-0.0566,-0.0566,0,0,-0.0881,-0.0873,-0.0876,-0.0853,-0.0834,-0.0794,-0.0797,-0.0769,-0.0727,-0.0724,-0.0665,-0.0658,-0.0634,-0.0593,-0.0576,-0.0577,-0.0561,-0.054,-0.0538,-0.054,-0.0581,-0.0583,-0.0585,-0.0565,-0.0566,-0.0566,0,0,-0.0867,-0.0884,-0.087,-0.0846,-0.0817,-0.0793,-0.0786,-0.0742,-0.0718,-0.0673,-0.0661,-0.0648,-0.0593,-0.0573,-0.0557,-0.0535,-0.0553,-0.0521,-0.05,-0.0538,-0.054,-0.0542,-0.0585,-0.0591,-0.0512,-0.0512,-0.0512,0,-0.087,-0.0844,-0.0858,-0.0821,-0.079,-0.079,-0.0737,-0.0717,-0.0664,-0.0645,-0.0647,-0.0597,-0.0583,-0.0543,-0.0531,-0.0527,-0.0557,-0.0509,-0.0536,-0.0539,-0.0541,-0.0584,-0.0591,-0.051,-0.051,-0.0511,-0.0511,0,-0.083,-0.0804,-0.0791,-0.0747,-0.0719,-0.068,-0.0647,-0.0621,-0.0603,-0.0582,-0.0551,-0.0547,-0.0516,-0.0512,-0.051,-0.0509,-0.0528,-0.0536,-0.0544,-0.0541,-0.0586,-0.0594,-0.0508,-0.0509,-0.0509,-0.0509,0,0,-0.0828,-0.0773,-0.0763,-0.0717,-0.0672,-0.0632,-0.0585,-0.0534,-0.0496,-0.0488,-0.0443,-0.0436,-0.0459,-0.0446,-0.0453,-0.0489,-0.0539,-0.0516,-0.0519,-0.056,-0.0632,-0.0618,-0.0626,-0.0553,-0.0554,-0.0555,-0.0657,0,-0.078,-0.0698,-0.0682,-0.0584,-0.0532,-0.0514,-0.0458,-0.0422,-0.0408,-0.0371,-0.0406,-0.0369,-0.0424,-0.0405,-0.0457,-0.0504,-0.0558,-0.0511,-0.0628,-0.0631,-0.0621,-0.0634,-0.059,-0.0675,-0.0665,-0.0667,-0.0668,0,-0.0729,-0.0677,-0.0581,-0.0481,-0.0456,-0.0398,-0.0317,-0.0269,-0.0251,-0.024,-0.0256,-0.0282,-0.0317,-0.0368,-0.0492,-0.0459,-0.055,-0.0611,-0.0617,-0.062,-0.0632,-0.0676,-0.069,-0.0682,-0.068,-0.0679,-0.0678,0,-0.07,-0.0596,-0.0515,-0.0482,-0.0381,-0.0327,-0.0272,-0.0229,-0.0168,-0.0163,-0.013,-0.0203,-0.02,-0.0343,-0.0475,-0.0485,-0.0624,-0.0648,-0.0734,-0.0734,-0.0727,-0.0724,-0.0764,-0.0764,-0.0764,-0.0763,-0.0763,0,-0.0648,-0.0578,-0.0489,-0.044,-0.0315,-0.0272,-0.0157,-0.012,-0.0059,0.0013,-0.0061,-0.0032,-0.0195,-0.029,-0.0452,-0.0608,-0.0612,-0.0738,-0.076,-0.0715,-0.071,-0.0736,-0.0731,-0.0767,-0.0766,-0.0766,-0.0765,0,-0.0622,-0.0575,-0.0463,-0.0346,-0.0296,-0.0206,-0.0055,0.0023,0.0058,0.0147,0.0159,0.0112,-0.0019,-0.0202,-0.0408,-0.054,-0.0713,-0.0775,-0.071,-0.0721,-0.0812,-0.0804,-0.0888,-0.0888,-0.0888,-0.0889,-0.0889,0,-0.0603,-0.0548,-0.0395,-0.0302,-0.0237,-0.0102,0.0001,0.0081,0.0164,0.023,0.028,0.0199,0.0118,-0.0172,-0.0401,-0.0675,-0.0718,-0.0791,-0.0805,-0.0812,-0.0825,-0.0817,-0.0809,-0.0794,-0.0794,-0.0793,-0.0793,0,-0.0548,-0.0499,-0.0399,-0.0217,-0.0086,0.0057,0.0199,0.0275,0.0359,0.0403,0.044,0.0373,0.0132,-0.0114,-0.0441,-0.0619,-0.0743,-0.0789,-0.0817,-0.0755,-0.0728,-0.0739,-0.0734,-0.0789,-0.0789,-0.079,-0.079,-0.079,-0.0496,-0.041,-0.027,-0.0091,0.0061,0.0217,0.0322,0.042,0.0523,0.0575,0.0512,0.0425,0.019,-0.0228,-0.0471,-0.0691,-0.0733,-0.0823,-0.0823,-0.0824,-0.078,-0.0753,-0.0811,-0.0812,-0.0812,-0.0813,-0.0813,0,-0.0398,-0.0293,-0.0137,0.0077,0.0245,0.0312,0.0474,0.0526,0.061,0.0617,0.0585,0.0359,0.0085,-0.0156,-0.0476,-0.0707,-0.0719,-0.0762,-0.0731,-0.0735,-0.0739,-0.0688,-0.0697,-0.0697,-0.0697,-0.0697,0,0,-0.0327,-0.0165,-0.0082,0.0212,0.0364,0.0563,0.065,0.0665,0.0681,0.0637,0.0605,0.0456,0.0167,-0.0033,-0.0337,-0.0501,-0.0561,-0.0532,-0.061,-0.0545,-0.0544,-0.0769,-0.0696,0,0,0,0,0]}],[{"header":{"parameterUnit":"m.s-1","parameterCategory":2,"la1":30.2991,"la2":30.254,"lo1":-89.0895,"lo2":-89.0444,"dy":0.0017,"dx":0.0017,"nx":28,"ny":28,"refTime":"2024-07-02T09:00:00:Z","depth":"4","parameterNumber":2,"parameterNumberName":"U-component_of_CURRENTS"},"data":[0,0,0,0,0,0,0,0,0,0,0,0,0,0,0,0,0,0,0,0,0,0,0,0,0,0,0,0,0,0,0,0,0,0,0,0,0,0,0,0,0,0,0,0,0,0,0,0,0,0,0,0,0,0,0,0,0,0,0.0628,0.0629,0,0.067,0.067,0.067,0.0745,0.0747,0.075,0.0752,0.0874,0.0875,0.0876,0,0,0,0,0,0,0,0,0,0,0,0,0,0.0495,0.0497,0.0628,0.0629,0.0631,0.067,0.067,0.067,0.0745,0.0748,0.075,0.0753,0.0873,0.0875,0.0876,0,0,0,0,0,0,0,0,0,0,0,0,0,0.0538,0.0498,0.0628,0.068,0.0685,0.067,0.067,0.0669,0.0744,0.0748,0.0751,0.0754,0.0873,0.0875,0.0876,0.0818,0,0,0.0881,0.0882,0,0,0,0,0,0,0,0,0.0536,0.0542,0.0671,0.0676,0.0683,0.0714,0.0668,0.0726,0.0743,0.0712,0.0752,0.0756,0.0831,0.0836,0.0823,0.0824,0.0829,0.0882,0.0883,0.0883,0.0884,0,0,0,0,0,0,0,0.0533,0.054,0.0635,0.0672,0.0679,0.0662,0.0671,0.0678,0.0746,0.0715,0.0723,0.0741,0.0834,0.082,0.0826,0.0831,0.0881,0.0883,0.0884,0.0885,0.0919,0.0919,0,0,0,0,0,0,0.0549,0.0537,0.0634,0.0637,0.0626,0.0662,0.0673,0.0693,0.0745,0.0758,0.0738,0.0745,0.0816,0.0824,0.0831,0.0898,0.0883,0.0885,0.0886,0.0919,0.0919,0.0919,0,0,0,0,0,0,0.0545,0.0557,0.0633,0.0595,0.0605,0.0663,0.0683,0.0692,0.0746,0.0763,0.0777,0.0793,0.0819,0.0829,0.0895,0.0899,0.0886,0.0887,0.0919,0.0919,0.0919,0.0947,0,0,0,0,0,0,0.0541,0.0555,0.0579,0.0597,0.0609,0.0639,0.0681,0.0691,0.0752,0.0762,0.0812,0.0823,0.0822,0.0892,0.0897,0.0901,0.0888,0.0919,0.0919,0.0919,0.0946,0.0948,0.0949,0,0,0,0,0,0.0536,0.0559,0.0579,0.0592,0.0638,0.064,0.0642,0.0688,0.0752,0.0753,0.0819,0.0825,0.0893,0.0895,0.0899,0.0904,0.0919,0.0919,0.0919,0.0946,0.0948,0.0949,0,0,0,0,0,0,0.0519,0.057,0.0593,0.0633,0.0643,0.0657,0.0681,0.0718,0.0766,0.0811,0.0838,0.0851,0.0894,0.09,0.0901,0.091,0.09,0.0901,0.0919,0.0921,0.0922,0.0923,0.089,0,0,0,0,0,0.0524,0.0555,0.0584,0.0615,0.0633,0.0667,0.0686,0.0719,0.0762,0.079,0.0834,0.0873,0.0878,0.0911,0.0908,0.0935,0.0936,0.0934,0.0936,0.0937,0.0939,0.0938,0.094,0.0918,0.0918,0.0918,0,0,0.0524,0.056,0.0578,0.0613,0.0637,0.0653,0.0687,0.0732,0.0758,0.0795,0.0868,0.0881,0.0884,0.0899,0.0919,0.0924,0.0947,0.0937,0.0938,0.094,0.0938,0.094,0.0942,0.0918,0.0918,0.0918,0,0,0.0529,0.0578,0.0601,0.0614,0.0664,0.0678,0.0708,0.0754,0.0791,0.0837,0.0868,0.0898,0.0928,0.0922,0.0921,0.0932,0.0944,0.0937,0.0965,0.0964,0.0966,0.0968,0.0991,0.0994,0.0952,0.0952,0.0952,0,0.0532,0.057,0.0601,0.0624,0.0652,0.0701,0.0727,0.0747,0.0812,0.0844,0.0871,0.0914,0.0922,0.0933,0.0936,0.0934,0.0955,0.0962,0.0968,0.0969,0.097,0.0993,0.0997,0.0954,0.0953,0.0953,0.0953,0,0.0542,0.0581,0.06,0.0647,0.0666,0.07,0.0738,0.0781,0.0845,0.0866,0.0911,0.0917,0.0947,0.094,0.0947,0.0959,0.0978,0.096,0.0966,0.0975,0.0998,0.1001,0.0955,0.0955,0.0955,0.0954,0,0,0.0526,0.0596,0.0604,0.063,0.0695,0.0706,0.076,0.0801,0.0853,0.0891,0.094,0.0936,0.0967,0.0967,0.0977,0.0981,0.1007,0.0993,0.0993,0.1023,0.1042,0.1026,0.1028,0.1007,0.1007,0.1007,0.1061,0,0.053,0.0573,0.0612,0.0653,0.068,0.0738,0.0773,0.082,0.0871,0.0923,0.0936,0.0974,0.0969,0.1001,0.1001,0.1002,0.1015,0.0996,0.1022,0.1023,0.1013,0.103,0.1008,0.1063,0.1064,0.1065,0.1065,0,0.052,0.0559,0.0605,0.0668,0.0689,0.073,0.0813,0.085,0.0918,0.0958,0.1004,0.1024,0.105,0.1035,0.105,0.1052,0.1055,0.1047,0.1049,0.1024,0.1012,0.1047,0.1071,0.107,0.107,0.1069,0.1069,0,0.0475,0.0545,0.059,0.0612,0.0691,0.0746,0.0806,0.0882,0.0921,0.1005,0.1042,0.1072,0.1105,0.1099,0.1105,0.1091,0.1117,0.1086,0.1073,0.1073,0.1059,0.1056,0.1087,0.1087,0.1087,0.1087,0.1087,0,0.045,0.0478,0.0588,0.0608,0.0676,0.0747,0.0827,0.0887,0.0971,0.1017,0.1076,0.1109,0.1125,0.1145,0.113,0.1127,0.1141,0.1083,0.1082,0.1072,0.107,0.1063,0.1059,0.1089,0.1089,0.1088,0.1088,0,0.0379,0.0446,0.0495,0.061,0.0656,0.0712,0.0843,0.0885,0.0986,0.105,0.1082,0.1151,0.1193,0.1203,0.1205,0.1166,0.1152,0.1147,0.117,0.1167,0.1103,0.1101,0.1128,0.1128,0.1128,0.1128,0.1127,0,0.0345,0.0366,0.049,0.0536,0.0605,0.0707,0.0769,0.0884,0.0932,0.1063,0.1078,0.1167,0.1203,0.12,0.1213,0.1207,0.1184,0.1178,0.1103,0.111,0.1106,0.1103,0.1101,0.1127,0.1127,0.1127,0.1127,0,0.0277,0.0333,0.0382,0.0484,0.0569,0.0638,0.0752,0.0782,0.091,0.0989,0.1065,0.1109,0.1165,0.1179,0.1204,0.1182,0.1175,0.1175,0.1174,0.1104,0.111,0.1105,0.1103,0.1126,0.1127,0.1127,0.1127,0,0.0235,0.0258,0.0341,0.0432,0.0512,0.0578,0.064,0.073,0.0795,0.0951,0.0973,0.1076,0.1155,0.117,0.1178,0.118,0.1146,0.1088,0.109,0.1091,0.1054,0.1055,0.1059,0,0,0,0,0,0.0197,0.0229,0.0289,0.0389,0.046,0.0521,0.0624,0.0686,0.0811,0.0841,0.0915,0.0971,0.1037,0.1084,0.1075,0.1148,0.1135,0.1132,0.1064,0.1123,0.1124,0.1083,0,0,0,0,0,0,0.0174,0.0218,0.0265,0.0337,0.0397,0.0474,0.054,0.0622,0.0655,0.0782,0.0816,0.0916,0.0978,0.1029,0.1056,0.107,0.101,0.1197,0.1195,0.1123,0.1124,0.1124,0.1082,0,0,0,0,0]},{"header":{"parameterUnit":"m.s-1","parameterCategory":2,"la1":30.2991,"la2":30.254,"lo1":-89.0895,"lo2":-89.0444,"dy":0.0017,"dx":0.0017,"nx":28,"ny":28,"refTime":"2024-07-02T09:00:00:Z","depth":"4","parameterNumber":3,"parameterNumberName":"V-component_of_CURRENTS"},"data":[0,0,0,0,0,0,0,0,0,0,0,0,0,0,0,0,0,0,0,0,0,0,0,0,0,0,0,0,0,0,0,0,0,0,0,0,0,0,0,0,0,0,0,0,0,0,0,0,0,0,0,0,0,0,0,0,0,0,0.004,0.0039,0,-0.0036,-0.0037,-0.0038,-0.0077,-0.0077,-0.0077,-0.0077,-0.0171,-0.0174,-0.0176,0,0,0,0,0,0,0,0,0,0,0,0,0,0.0096,0.0096,0.004,0.0039,0.0038,-0.0036,-0.0037,-0.0038,-0.0077,-0.0077,-0.0077,-0.0077,-0.0171,-0.0173,-0.0176,0,0,0,0,0,0,0,0,0,0,0,0,0,0.0053,0.0096,0.004,0.0008,0.0004,-0.0036,-0.0037,-0.0038,-0.0077,-0.0077,-0.0077,-0.0078,-0.017,-0.0173,-0.0177,-0.0192,0,0,-0.0187,-0.0189,0,0,0,0,0,0,0,0,0.0055,0.0051,0.0014,0.001,0.0006,-0.0049,-0.0052,-0.0091,-0.0077,-0.0044,-0.0077,-0.0078,-0.0133,-0.014,-0.015,-0.0196,-0.0201,-0.0188,-0.019,-0.0191,-0.0192,0,0,0,0,0,0,0,0.0059,0.0054,0.0012,0.0013,0.0008,-0.0022,-0.0027,-0.006,-0.0085,-0.0047,-0.005,-0.0062,-0.0135,-0.0147,-0.0153,-0.0202,-0.0187,-0.0191,-0.0193,-0.0194,-0.0405,-0.0408,0,0,0,0,0,0,0.0068,0.0057,0.0014,0.0009,0.0028,-0.0022,-0.0029,-0.003,-0.0084,-0.0093,-0.0061,-0.0063,-0.0141,-0.0149,-0.0157,-0.0262,-0.0191,-0.0194,-0.0196,-0.0401,-0.0405,-0.0409,0,0,0,0,0,0,0.0069,0.0065,0.0017,0.0029,0.0021,-0.0023,-0.0024,-0.0031,-0.0073,-0.0095,-0.0104,-0.0099,-0.0141,-0.0152,-0.0245,-0.0263,-0.0196,-0.0199,-0.0397,-0.0402,-0.0407,-0.0419,0,0,0,0,0,0,0.0072,0.0066,0.0063,0.003,0.002,-0.0016,-0.0024,-0.0032,-0.0078,-0.0083,-0.0131,-0.0138,-0.0142,-0.024,-0.0248,-0.0266,-0.0202,-0.0393,-0.0399,-0.0406,-0.0415,-0.0424,-0.0433,0,0,0,0,0,0.0074,0.0073,0.0064,0.0058,0.002,-0.0017,-0.0025,-0.0056,-0.008,-0.0096,-0.0165,-0.0138,-0.0287,-0.0246,-0.0255,-0.0274,-0.0389,-0.0398,-0.0405,-0.041,-0.0422,-0.0433,0,0,0,0,0,0,0.01,0.0067,0.0057,0.0047,0.0013,-0.0025,-0.0048,-0.0076,-0.014,-0.0163,-0.0187,-0.02,-0.0285,-0.0298,-0.0253,-0.0363,-0.0332,-0.0342,-0.0333,-0.0344,-0.0353,-0.0294,-0.0205,0,0,0,0,0,0.0104,0.0089,0.0056,0.0044,0.0024,-0.0021,-0.0045,-0.0073,-0.013,-0.0158,-0.0205,-0.0265,-0.032,-0.0349,-0.0398,-0.0458,-0.0443,-0.0481,-0.049,-0.0497,-0.0462,-0.0485,-0.0491,-0.0435,-0.0435,-0.0435,0,0,0.011,0.0089,0.0081,0.0047,0.0014,-0.0015,-0.0037,-0.0086,-0.0116,-0.016,-0.0239,-0.0302,-0.035,-0.0422,-0.0459,-0.0434,-0.0516,-0.0507,-0.0512,-0.0472,-0.0494,-0.0498,-0.0502,-0.044,-0.0439,-0.0439,0,0,0.0108,0.0093,0.0074,0.0047,-0.0009,-0.0033,-0.0055,-0.0121,-0.0155,-0.0236,-0.0287,-0.0366,-0.0449,-0.0482,-0.0507,-0.06,-0.0569,-0.0634,-0.0617,-0.0642,-0.0644,-0.0646,-0.0655,-0.0657,-0.0629,-0.0629,-0.0629,0,0.0113,0.0092,0.0062,0.0034,0.0011,-0.0044,-0.0072,-0.011,-0.0204,-0.0236,-0.0263,-0.0413,-0.0459,-0.0528,-0.0567,-0.0608,-0.062,-0.0561,-0.0646,-0.0647,-0.0649,-0.0657,-0.066,-0.0631,-0.0631,-0.0631,-0.063,0,0.009,0.0076,0.0058,0.0013,-0.0014,-0.0052,-0.01,-0.0151,-0.0207,-0.0247,-0.0347,-0.043,-0.0503,-0.0549,-0.058,-0.0636,-0.0641,-0.0655,-0.0596,-0.0653,-0.0662,-0.0663,-0.0633,-0.0633,-0.0632,-0.0632,0,0,0.0076,0.0052,0.0038,0.0032,-0.0031,-0.0053,-0.0102,-0.0154,-0.0187,-0.028,-0.0325,-0.0438,-0.0487,-0.0521,-0.0588,-0.0613,-0.0655,-0.064,-0.064,-0.0609,-0.0706,-0.0674,-0.0673,-0.0689,-0.0689,-0.0689,-0.0711,0,0.0056,0.0038,0.0015,-0.0013,-0.0027,-0.0071,-0.01,-0.0154,-0.0212,-0.0273,-0.0349,-0.0425,-0.0474,-0.0527,-0.0562,-0.0639,-0.0659,-0.0646,-0.0687,-0.0687,-0.0619,-0.0674,-0.069,-0.0713,-0.0713,-0.0713,-0.0714,0,0.0013,0.0016,0.0003,-0.0004,-0.0018,-0.0046,-0.0096,-0.0131,-0.0207,-0.025,-0.0324,-0.0391,-0.0466,-0.0497,-0.0591,-0.0588,-0.0637,-0.068,-0.0682,-0.0634,-0.0658,-0.0645,-0.0717,-0.0716,-0.0716,-0.0716,-0.0716,0,0.0012,-0.0006,-0.0004,-0.0012,-0.0028,-0.0051,-0.0077,-0.0139,-0.0164,-0.0246,-0.0274,-0.0367,-0.0423,-0.049,-0.0586,-0.0596,-0.0671,-0.0694,-0.0702,-0.0701,-0.0709,-0.0707,-0.0733,-0.0733,-0.0733,-0.0733,-0.0733,0,-0.0003,-0.0011,-0.0003,-0.0002,-0.0012,-0.0039,-0.0071,-0.0106,-0.0158,-0.0181,-0.0269,-0.0304,-0.0425,-0.0492,-0.0568,-0.0635,-0.0655,-0.0685,-0.0702,-0.0723,-0.0722,-0.0711,-0.0708,-0.0734,-0.0734,-0.0734,-0.0733,0,-0.001,-0.0004,-0.0,-0.0003,-0.001,-0.0024,-0.0055,-0.0073,-0.0121,-0.0152,-0.0175,-0.0264,-0.0347,-0.0452,-0.0564,-0.0605,-0.0676,-0.0694,-0.0695,-0.0714,-0.0691,-0.069,-0.0693,-0.0692,-0.0691,-0.0691,-0.069,0,-0.0007,-0.0003,0.0006,0.0008,-0.0001,-0.0018,-0.003,-0.0064,-0.0076,-0.0122,-0.0131,-0.0218,-0.0284,-0.0398,-0.0519,-0.0638,-0.0659,-0.0682,-0.0692,-0.067,-0.0686,-0.0686,-0.0686,-0.0689,-0.0688,-0.0688,-0.0688,0,-0.0001,-0.0006,0.0007,0.0017,0.0008,0.0014,-0.0005,-0.0001,-0.003,-0.0059,-0.008,-0.0157,-0.0247,-0.0367,-0.0465,-0.0556,-0.066,-0.0674,-0.0676,-0.0686,-0.0665,-0.0682,-0.0682,-0.0685,-0.0686,-0.0686,-0.0686,0,-0.0006,-0.0002,0.0011,0.0013,0.0019,0.003,0.0028,0.0024,0.0018,-0.0016,-0.002,-0.0126,-0.0195,-0.0324,-0.0415,-0.0501,-0.0522,-0.0534,-0.0544,-0.0549,-0.0508,-0.0459,-0.0418,0,0,0,0,0,-0.0012,-0.0012,0.0003,0.0011,0.0025,0.0026,0.0038,0.0039,0.0029,0.0034,0.0013,-0.0065,-0.0196,-0.0268,-0.0344,-0.0421,-0.0556,-0.0512,-0.0579,-0.0669,-0.0673,-0.0646,0,0,0,0,0,0,-0.0017,-0.0008,-0.0,0.001,0.0015,0.0029,0.004,0.0042,0.0048,0.0034,-0.0036,-0.0069,-0.0209,-0.0154,-0.0343,-0.0374,-0.042,-0.0584,-0.0585,-0.0667,-0.067,-0.0673,-0.0647,0,0,0,0,0]}]]